Lid_Strength_Index
-1 -0 -0 -1 -1 -1 -1 -1 -1 -0 -1 -1 -1 -1 -0 -0 -0 -1 -1 -1 -1 -1 -1 -1 -1 -1 3 8 8 5 -3 -1 4 4 5 5 7 6 8 9 9 8 8 7 7 7 7
1 1 0 0 0 -0 0 0 0 0 1 0 0 0 0 0 0 1 -0 -1 -1 -1 -1 -1 -1 -1 6 11 7 5 5 5 4 5 5 5 6 6 7 8 9 9 9 9 9 8 8
3 2 2 1 1 1 1 1 1 1 1 1 1 1 1 1 1 1 0 -1 -1 -1 -0 -0 -0 1 7 9 5 5 5 5 5 5 5 5 5 7 6 8 8 9 11 11 10 10 9
4 3 3 3 3 3 2 2 2 2 2 2 1 2 2 1 1 1 1 0 0 0 -0 -0 -0 4 9 6 5 5 5 5 5 5 5 5 5 6 7 7 9 11 12 13 11 10 10
4 4 4 4 4 4 4 4 4 3 3 2 2 2 2 2 2 2 1 1 1 -0 -0 -0 5 8 10 4 7 7 6 6 6 6 6 5 6 8 8 11 13 12 13 13 12 11 10
3 4 4 4 4 4 5 5 5 4 4 4 4 3 3 3 2 2 2 2 2 2 2 2 5 10 9 10 8 7 6 6 7 7 8 7 9 10 11 12 15 14 14 14 14 12 12
3 3 3 4 4 3 4 4 4 4 4 4 4 4 4 3 3 2 3 6 8 9 8 9 10 10 10 7 7 9 7 7 7 9 11 10 11 12 12 11 11 12 13 14 13 13 13
3 3 2 3 3 3 3 3 3 3 3 3 4 3 3 3 3 2 4 6 6 7 11 8 8 8 7 6 9 9 7 10 10 12 11 13 13 11 11 11 11 12 13 13 13 13 13
3 3 3 3 3 3 3 3 3 3 3 3 4 3 3 3 3 3 5 5 3 6 11 10 8 8 8 8 10 10 8 10 11 13 13 14 12 11 11 12 12 13 13 14 14 13 13
3 3 3 3 3 3 3 3 3 3 3 3 3 3 3 3 5 5 6 3 3 6 16 14 10 9 9 8 11 9 9 9 11 13 13 13 12 12 13 13 13 14 13 13 13 14 16
4 4 3 3 3 3 3 3 3 3 3 3 3 4 4 4 6 7 4 4 5 10 19 12 10 8 10 10 11 11 9 10 12 13 12 14 13 13 13 13 12 13 12 13 13 15 15
4 4 4 4 4 3 3 3 4 3 3 3 3 3 4 7 7 6 4 4 9 16 19 13 11 12 12 11 11 10 10 10 11 13 13 13 12 12 12 12 12 12 13 15 14 15 18
4 4 4 4 4 4 4 4 4 4 4 3 4 4 5 5 10 5 4 11 16 18 14 14 13 12 13 13 12 12 13 13 14 16 17 15 15 13 12 13 12 13 15 17 18 18 18
5 5 5 5 4 4 4 4 4 4 4 4 4 5 7 6 6 6 9 14 19 16 15 12 13 13 14 13 13 13 14 15 14 15 16 17 17 14 13 13 14 14 15 18 20 19 17
4 4 5 5 4 4 4 4 4 4 3 4 6 10 9 7 7 7 13 18 18 16 13 13 13 15 15 14 14 14 15 15 14 14 15 17 16 14 14 13 13 15 16 14 17 18 18
5 5 5 5 5 5 5 4 4 4 3 4 10 12 10 8 7 9 13 16 16 12 11 12 16 14 16 15 15 15 15 14 13 13 13 15 17 15 13 13 13 14 13 16 17 19 20
6 5 5 5 5 5 5 5 4 4 4 5 12 15 10 9 7 12 16 16 13 11 10 12 14 15 15 14 14 16 15 13 13 13 13 14 15 16 14 14 15 15 15 16 16 17 18
6 6 6 5 5 5 5 5 5 4 4 8 14 17 11 7 13 14 15 13 10 10 9 10 11 12 13 13 14 15 15 14 11 12 14 13 15 17 15 14 13 14 14 15 17 18 18
6 6 6 6 5 5 5 5 5 4 5 11 15 15 11 9 16 15 13 11 10 11 11 11 11 10 10 12 13 13 13 11 10 11 13 13 16 18 16 15 14 15 15 15 15 16 18
5 6 5 6 5 5 5 5 5 5 5 11 15 18 14 12 11 13 15 14 12 10 10 11 11 11 12 12 12 13 13 11 10 10 8 11 15 16 17 16 15 16 16 15 15 17 16
5 4 4 4 4 4 4 5 5 5 5 11 15 18 15 19 16 16 15 14 14 14 11 10 12 12 12 14 13 14 14 13 11 10 10 12 16 15 15 15 15 15 15 16 17 15 17
4 4 4 4 4 4 4 4 4 4 5 11 15 16 16 17 16 17 16 17 16 14 13 13 13 13 13 14 13 15 15 13 13 12 12 11 14 15 16 14 15 15 14 15 15 15 15
5 4 4 4 4 4 4 4 4 4 6 12 12 12 13 15 17 18 18 17 15 15 14 12 13 14 15 14 13 12 12 12 13 14 14 13 14 15 17 15 13 16 13 13 13 14 13
5 5 4 4 4 4 4 4 4 4 6 10 11 12 14 17 16 16 15 14 15 15 16 14 13 14 12 11 12 12 13 13 13 13 12 13 13 13 15 14 19 14 13 12 13 13 12
5 5 5 5 4 4 4 4 4 4 4 8 9 10 11 15 15 14 14 14 14 14 14 14 13 12 12 13 15 17 17 16 14 13 13 12 13 15 16 16 14 13 12 12 13 13 13
4 4 5 4 4 4 4 4 4 4 4 8 9 8 11 13 14 13 15 14 16 17 16 14 12 12 12 14 16 20 21 19 19 17 12 12 12 14 16 18 19 14 13 11 10 15 13
4 4 4 4 4 4 4 4 4 3 4 7 9 8 9 12 11 12 14 15 13 15 16 15 14 14 12 16 17 19 19 16 20 19 18 17 15 16 15 16 15 14 13 10 15 16 13
4 4 4 4 4 4 3 3 3 3 3 6 8 7 9 11 12 10 10 12 13 13 16 14 14 14 15 16 17 17 18 17 18 17 17 17 18 18 17 18 21 13 13 14 13 11 11
3 3 3 3 3 3 3 3 3 3 2 5 9 7 6 8 9 9 8 7 8 9 11 11 12 12 12 15 15 14 17 17 18 19 14 18 14 16 14 15 12 12 13 11 10 11 10